Theta_e
318 317 316 315 314 313 314 313 313 312 311 312 312 312 311 311 309 311 308 310 309 307 301 299 299 299 298 300 299 297 295 295 294 292 294 295 292 293 290 293 290 290 289 288 289 286 283 297 293 289 295 298 298 297
315 314 313 312 311 312 313 312 312 313 313 313 311 311 311 310 309 309 308 310 308 308 304 302 302 302 300 299 302 298 299 297 300 297 297 298 293 294 292 288 294 288 292 291 292 291 299 298 296 299 299 297 297 297
314 312 311 311 310 310 310 310 310 310 310 311 313 311 310 310 309 310 307 307 309 305 304 303 301 303 305 303 303 299 301 301 298 300 299 298 293 296 290 291 293 294 296 291 292 294 296 298 300 300 300 298 298 298
312 311 310 310 309 309 309 309 308 308 308 309 309 312 310 308 308 309 306 307 306 304 298 299 304 301 303 303 302 301 298 299 300 300 297 297 294 298 293 294 291 294 293 292 292 294 296 297 298 298 298 299 298 298
311 310 309 309 309 308 308 308 308 307 307 307 308 308 310 306 307 309 307 306 306 302 299 299 301 300 301 301 300 300 299 298 298 296 295 294 297 295 295 294 290 295 293 290 290 294 294 294 297 298 297 296 297 296
311 310 309 308 308 307 307 307 307 307 307 307 307 307 310 308 305 307 302 307 307 306 301 296 300 297 299 299 299 298 300 299 299 298 297 298 297 295 291 290 295 297 297 297 293 296 296 297 298 299 297 297 297 297
310 309 308 308 307 307 306 306 306 307 306 307 307 306 308 308 308 302 299 303 305 307 298 294 295 295 296 297 299 299 298 299 298 297 295 295 295 293 292 288 294 296 296 296 297 297 294 296 295 297 297 297 297 296
309 309 308 307 307 307 306 306 306 305 307 307 306 307 308 307 305 303 306 305 306 302 299 290 291 292 296 295 294 297 296 297 295 295 295 293 294 293 286 293 295 295 295 296 297 297 296 296 296 296 296 296 294 293
309 308 307 307 307 307 306 306 306 306 307 306 307 307 306 304 301 302 304 305 308 302 291 289 288 290 296 294 296 295 296 291 295 291 292 293 290 285 290 293 294 294 295 295 296 297 297 296 295 295 295 294 293 292
308 308 307 307 306 306 306 307 306 306 306 306 305 300 296 301 305 305 302 298 298 298 297 289 294 289 295 295 293 294 292 290 286 289 291 286 286 292 294 295 296 296 297 296 294 293 294 294 294 294 293 294 293 293
307 307 307 307 307 307 307 307 306 305 304 303 298 296 302 305 302 298 293 290 291 288 292 292 291 290 294 290 291 293 288 288 282 286 285 284 285 291 295 295 298 298 297 296 297 298 298 297 295 294 293 294 293 292
307 307 307 307 307 307 308 307 306 304 302 301 302 304 303 297 293 288 287 289 286 285 290 289 290 291 292 295 290 290 285 284 279 289 283 281 289 294 295 295 297 297 296 296 296 297 297 297 296 295 294 293 292 292
307 307 306 307 307 307 308 307 305 304 303 303 299 293 292 290 283 282 280 284 284 288 290 290 288 290 292 293 290 288 282 281 290 282 281 286 292 294 295 296 296 297 297 296 295 296 297 297 297 295 294 294 293 292
306 306 307 307 307 307 307 305 304 304 301 294 286 281 285 282 285 287 287 289 292 292 290 291 288 289 290 288 288 283 287 287 280 278 281 289 292 293 295 295 295 295 296 295 295 295 295 296 296 295 294 294 293 291
306 306 306 306 307 307 306 305 304 305 299 288 288 282 284 289 290 291 292 291 292 295 293 290 289 289 286 284 285 284 281 279 282 282 288 292 293 293 293 294 294 294 295 295 295 294 294 295 295 294 294 293 292 292
306 306 304 306 307 306 305 305 304 303 298 291 288 286 288 287 288 288 289 290 293 294 294 293 287 283 283 285 282 281 280 279 284 289 292 293 292 293 293 294 294 295 295 294 295 295 294 294 294 294 293 293 292 291
304 300 305 306 306 305 304 301 298 292 289 286 286 290 289 290 289 290 291 292 295 292 288 289 282 282 288 282 281 285 283 286 290 292 293 294 293 293 294 294 294 294 294 294 295 295 295 296 295 293 291 292 292 291
299 304 305 305 305 303 301 299 293 287 285 287 287 289 290 292 290 290 292 294 293 291 291 288 290 284 282 280 282 287 290 293 294 294 295 295 295 295 295 294 295 295 294 294 295 295 295 295 293 293 293 292 292 291
302 304 305 304 303 298 291 291 293 285 286 289 291 292 292 291 293 294 294 294 294 296 293 289 286 283 284 289 289 291 293 293 293 295 296 295 295 295 295 295 295 295 294 294 295 295 296 296 295 295 295 293 292 291
304 304 304 303 302 293 287 287 291 289 286 288 291 290 290 290 292 292 293 293 292 290 286 285 285 289 290 292 294 294 295 296 295 293 294 296 296 295 295 295 295 295 295 295 295 296 295 295 295 294 293 293 291 290
301 303 302 301 297 294 289 286 286 289 289 288 290 290 289 291 290 290 290 292 288 287 285 289 290 292 295 295 296 296 296 295 294 295 294 294 295 295 295 295 296 295 295 295 295 295 295 295 296 296 294 292 293 293
299 300 296 296 287 287 286 290 289 289 287 287 288 289 287 286 287 288 292 288 286 289 291 291 293 294 294 294 295 296 296 296 296 296 296 296 294 294 294 295 295 295 296 295 295 294 295 296 296 296 294 293 294 293
299 296 291 288 285 284 285 291 285 286 283 284 287 285 285 286 288 292 287 289 289 293 294 294 294 295 294 295 296 295 296 295 295 295 295 295 296 295 295 295 295 294 294 295 296 295 294 296 295 293 292 292 292 291
297 289 285 285 285 284 285 284 287 286 286 285 284 282 284 286 290 286 284 287 291 294 294 294 295 294 294 294 294 294 295 296 294 295 295 294 293 293 294 294 295 295 294 293 292 292 293 293 292 291 291 290 290 289
285 284 284 282 285 283 281 281 282 283 281 283 283 283 285 288 283 282 283 287 291 293 294 295 295 294 292 293 294 295 296 294 292 292 294 294 293 293 292 293 293 294 294 291 289 290 290 292 292 291 290 289 289 289
281 284 283 283 283 282 282 280 281 281 282 282 283 286 287 285 282 281 286 290 291 293 294 295 294 293 292 293 292 292 293 294 292 290 291 293 293 290 290 289 289 291 294 292 290 289 289 290 290 290 290 290 290 290
281 283 285 290 288 287 285 286 286 284 282 281 284 284 283 280 281 286 292 293 292 292 292 292 292 292 292 292 292 292 292 292 291 291 293 293 293 293 291 290 289 291 293 292 291 290 288 288 288 288 288 289 290 290
285 286 282 284 285 287 283 284 283 283 284 287 287 282 281 282 284 291 292 291 291 290 290 291 291 291 291 291 291 291 291 292 292 292 293 293 293 293 292 293 292 292 292 291 290 289 288 288 288 288 287 288 289 289
284 288 288 282 284 285 285 285 285 288 290 288 285 284 286 290 292 290 289 289 289 289 289 289 289 290 290 290 290 290 290 290 288 286 285 286 288 289 292 291 291 292 292 291 291 290 289 289 288 289 289 288 288 289
285 289 286 284 282 282 286 289 289 292 292 291 291 289 289 289 290 288 287 287 286 288 290 290 290 289 289 288 288 288 290 290 290 288 285 285 286 290 290 289 289 290 291 291 289 289 290 289 289 289 287 287 287 288
288 288 286 285 284 287 290 290 288 288 287 288 289 287 288 289 289 288 287 288 289 289 288 287 287 288 288 287 286 286 285 288 288 288 289 289 289 289 289 290 290 290 289 289 288 288 288 287 287 286 286 286 287 287
286 285 284 283 284 284 286 285 285 285 286 285 285 287 286 285 284 288 285 285 285 286 287 288 287 287 288 288 288 288 287 287 287 287 286 287 288 288 289 289 289 289 288 288 288 288 287 287 286 285 286 286 286 286
284 284 284 283 281 281 284 284 283 283 283 283 284 285 285 285 283 285 284 286 286 287 287 288 288 288 287 287 287 287 286 286 286 286 287 287 287 288 289 289 289 288 287 286 286 286 286 286 286 285 285 285 285 285
Wind_Speed
16 14 12 12 11 10 8 7 5 6 5 6 9 11 12 14 12 4 4 7 5 2 4 1 1 2 2 4 4 7 5 5 4 5 3 4 3 2 3 5 3 7 5 6 5 5 8 7 7 5 12 14 16 16
17 16 15 14 13 11 10 8 5 7 8 6 6 8 11 13 14 7 3 3 3 3 5 4 5 5 5 7 2 7 5 2 3 5 2 2 3 3 4 5 4 6 9 5 5 6 6 3 14 16 15 16 15 16
17 19 18 17 15 14 12 10 6 6 7 8 6 3 8 11 12 9 3 3 2 2 4 4 3 5 3 5 6 4 3 4 2 5 4 2 5 3 6 8 12 8 10 7 8 6 15 17 18 13 13 16 17 17
20 20 20 18 17 15 13 12 11 7 7 7 6 7 6 8 9 10 3 4 2 1 2 5 1 2 4 5 3 3 3 3 3 2 3 2 3 5 5 7 5 8 4 12 18 19 19 16 20 19 20 20 21 20
21 21 20 18 17 15 14 13 11 10 8 7 7 7 6 6 4 5 5 5 5 5 1 3 4 2 5 4 0 1 5 5 4 3 4 3 4 3 6 3 9 10 16 12 13 18 18 21 21 22 22 22 20 19
23 22 22 20 18 15 13 12 12 10 8 7 7 7 5 6 2 2 2 4 4 4 2 1 3 1 4 3 3 2 3 3 4 3 3 3 4 4 3 5 7 8 7 10 14 17 18 21 22 19 18 17 17 14
25 24 22 20 18 17 14 11 11 11 8 6 6 7 6 4 1 2 4 4 4 3 1 2 2 3 2 1 2 2 2 1 3 3 3 5 5 4 3 8 9 13 10 12 14 15 16 18 19 18 17 16 14 11
25 23 23 21 18 16 14 12 11 10 8 9 7 6 9 9 8 3 4 4 6 2 3 1 1 4 1 2 3 0 2 2 4 2 1 4 3 4 7 13 10 6 10 9 10 14 16 17 17 17 15 14 11 11
25 24 23 21 19 18 16 14 12 11 11 9 9 7 3 1 2 3 3 2 2 3 1 2 2 1 2 2 1 3 2 2 3 3 3 2 4 8 11 9 7 8 6 11 13 14 15 16 18 17 14 12 11 9
27 25 24 23 21 19 17 15 14 13 12 11 3 2 3 3 7 7 2 3 1 1 1 2 0 2 2 1 2 2 2 2 3 1 1 4 7 17 14 11 10 7 7 10 12 13 16 16 16 17 15 11 10 8
26 25 24 24 23 20 19 18 16 14 8 3 3 3 4 5 4 2 2 2 3 2 3 1 3 2 2 3 2 3 1 1 3 4 3 3 5 8 9 9 7 5 7 9 10 13 14 14 15 15 13 10 8 7
27 26 24 23 22 20 18 18 18 5 2 4 7 5 3 3 0 2 4 3 3 3 4 3 4 3 2 1 2 3 2 1 4 3 3 4 7 7 8 8 8 7 7 9 10 12 14 14 13 12 11 9 5 8
26 25 24 22 21 21 19 18 10 16 11 3 2 4 3 2 4 6 7 3 3 5 5 6 6 4 3 4 2 3 3 4 1 3 4 7 4 4 7 7 10 10 9 10 11 10 12 12 11 10 11 10 9 8
26 25 23 21 20 20 20 17 17 8 1 3 3 5 6 6 6 5 4 4 5 2 7 7 5 3 2 4 1 3 2 2 4 5 8 5 5 4 5 7 10 11 11 13 14 12 11 12 11 10 8 8 8 8
25 23 21 19 19 20 22 19 14 2 2 3 3 5 7 3 2 2 2 4 4 5 7 5 2 2 2 2 3 3 4 6 8 7 5 3 7 8 11 11 11 13 13 14 15 12 11 11 10 10 7 7 8 8
24 18 12 20 20 21 22 16 4 1 2 3 3 4 2 4 6 6 6 5 5 7 4 2 3 2 4 4 6 9 5 9 5 6 7 10 14 14 14 14 14 15 14 14 13 13 12 10 11 10 8 8 9 9
15 5 20 21 21 23 22 5 2 3 4 5 4 7 7 2 5 6 5 7 7 6 5 3 6 9 2 6 6 6 8 9 10 10 11 15 16 17 16 15 16 15 16 15 14 13 13 10 9 8 9 9 10 9
4 13 25 24 17 16 2 2 3 3 6 3 5 8 8 3 3 4 4 6 6 5 5 5 3 10 8 8 12 10 10 11 12 12 12 12 16 15 13 15 15 15 16 15 14 13 12 8 8 7 8 9 8 9
11 15 25 25 13 5 4 3 2 3 4 4 4 7 8 7 6 6 6 6 8 5 3 1 7 7 12 11 14 14 12 10 12 12 10 15 15 16 16 16 15 14 15 14 13 9 7 7 7 7 6 6 7 6
18 21 23 18 9 4 4 3 1 4 6 5 6 8 8 9 9 9 8 8 8 5 5 6 10 13 13 14 13 12 11 11 11 12 12 10 11 15 15 13 11 13 11 13 11 10 8 7 7 7 7 8 7 8
12 15 19 8 2 2 2 3 3 2 5 5 7 7 5 6 9 9 9 8 6 4 8 12 15 16 18 16 12 12 14 14 11 11 12 11 10 11 11 11 13 11 9 7 8 9 11 9 9 8 7 9 9 8
5 12 3 3 3 3 2 5 2 4 4 2 5 5 5 7 7 7 6 8 5 12 11 13 13 14 14 17 15 15 15 16 15 11 11 11 10 9 10 10 9 7 7 8 9 9 9 9 9 8 8 8 9 8
11 5 3 3 4 6 3 6 4 7 6 6 4 4 4 4 4 5 5 7 9 11 12 14 17 18 17 18 17 17 16 15 11 10 9 9 8 9 9 9 8 8 7 8 8 8 8 9 6 6 5 6 6 7
8 5 6 7 6 4 5 5 3 4 4 5 5 4 5 5 5 5 8 12 13 11 12 16 10 11 12 15 12 11 10 7 8 8 8 8 8 8 8 7 7 6 6 6 6 7 6 7 8 6 7 6 8 7
5 7 5 6 5 6 7 7 6 5 5 7 4 4 3 3 4 5 7 9 9 9 9 9 8 9 10 10 8 8 3 2 5 7 6 6 7 7 7 6 6 5 5 5 6 6 7 7 8 7 8 8 9 12
6 8 10 12 8 7 9 9 10 9 6 7 7 4 3 4 5 8 5 5 5 5 4 4 5 6 6 6 6 4 2 1 3 6 6 4 4 5 6 7 7 5 3 4 5 6 7 7 6 8 7 10 15 12
7 7 5 3 5 6 4 5 7 7 8 8 4 8 6 6 8 6 4 2 1 1 1 1 1 3 3 2 2 1 2 3 4 5 5 5 4 4 5 6 7 5 6 6 6 6 7 7 6 6 6 5 9 10
6 9 8 8 5 6 6 7 9 10 9 6 5 9 8 9 6 1 1 3 2 3 2 2 2 2 3 2 1 2 2 2 5 5 4 4 3 2 3 3 5 7 5 5 5 4 5 5 4 5 6 6 6 8
6 5 8 9 7 5 6 9 8 7 6 7 7 8 6 5 1 3 3 3 3 4 3 3 3 3 3 3 3 2 2 2 3 3 4 3 3 2 5 5 5 5 5 4 6 5 4 4 2 3 4 5 6 7
8 9 9 11 8 11 8 8 8 6 5 6 3 1 2 2 2 2 3 3 5 5 4 3 3 4 3 3 2 3 2 1 2 3 3 3 4 4 5 5 5 6 6 5 3 4 5 3 4 3 3 4 5 6
8 10 6 7 6 5 6 6 3 3 3 4 4 6 7 2 2 4 6 5 4 3 5 5 5 4 4 3 3 3 3 2 3 3 3 3 4 4 4 4 4 4 4 5 2 2 2 2 2 2 4 4 5 5
7 10 8 9 6 5 5 6 6 6 5 4 4 3 2 3 4 4 4 5 5 6 7 5 4 3 3 2 2 2 3 3 2 2 4 4 4 5 4 3 3 3 3 3 3 3 2 2 1 1 2 4 6 7
4 3 3 3 3 6 5 5 5 4 4 4 5 5 5 4 6 2 3 2 3 3 4 3 2 3 4 3 3 3 3 2 2 2 5 9 10 8 3 3 3 3 3 2 2 1 1 1 2 1 2 4 5 6
Wind_Direction
175 167 170 169 168 158 151 143 125 135 108 66 42 38 32 22 15 1 69 18 336 20 103 357 66 145 148 242 210 114 165 187 188 230 248 219 254 165 275 280 196 204 212 217 231 238 268 107 127 248 344 330 326 325
179 173 176 170 162 160 151 144 133 105 84 83 65 44 34 21 12 322 81 30 332 340 60 42 63 37 11 7 316 178 351 155 209 242 205 304 222 201 275 272 162 245 235 295 231 226 314 198 266 288 295 304 315 314
179 171 170 163 157 151 145 133 122 105 93 72 50 59 56 31 12 0 87 6 230 197 140 193 150 51 35 353 346 273 182 331 212 8 334 281 248 273 249 236 265 217 247 239 296 266 290 301 297 317 338 332 328 309
175 174 168 166 158 157 151 142 133 121 96 84 77 58 78 47 23 3 52 2 311 101 270 111 144 92 347 342 311 330 8 74 43 263 253 216 240 216 267 307 278 288 310 274 282 297 298 316 326 332 316 299 294 297
174 175 171 168 161 160 159 150 138 125 117 100 79 73 99 96 43 69 66 36 13 314 201 112 139 57 348 356 359 197 234 244 239 224 224 234 260 304 261 283 261 249 267 270 293 322 308 308 309 309 304 304 302 306
172 176 171 168 163 163 161 156 145 142 137 118 106 80 80 139 277 242 135 67 11 354 272 150 89 83 30 49 97 161 208 228 246 253 263 273 40 281 287 281 287 286 310 331 310 317 313 306 305 308 314 313 310 295
173 174 170 169 165 162 160 164 149 137 136 129 109 99 89 116 341 2 30 38 4 307 307 326 222 101 27 231 127 158 181 201 270 233 253 244 212 213 241 254 270 296 344 315 312 319 310 317 313 310 304 299 295 287
172 172 168 167 163 160 162 173 154 146 139 131 108 103 112 107 118 137 52 23 330 80 355 173 228 186 310 168 163 332 162 187 182 274 145 234 157 236 252 251 278 325 313 303 327 324 308 309 311 314 313 307 289 277
170 170 167 163 163 164 165 170 155 145 139 126 119 125 130 39 103 80 125 229 3 339 142 155 213 138 191 98 89 146 290 229 75 252 245 249 204 228 243 266 287 297 296 305 315 310 334 330 322 323 315 306 283 273
168 168 165 162 163 163 166 163 154 144 135 135 181 167 113 62 116 150 171 167 131 50 68 239 8 187 282 199 129 178 359 17 257 165 100 239 261 253 260 262 259 266 300 315 317 325 329 325 330 325 316 309 290 279
166 166 165 162 159 165 168 157 144 127 146 195 137 72 82 138 214 213 165 169 157 219 203 175 242 224 161 231 132 6 29 101 258 108 232 248 244 254 225 221 221 253 286 303 300 303 317 321 322 319 314 302 284 264
163 164 164 161 159 160 160 149 150 174 114 96 98 100 163 188 138 152 202 158 208 233 158 188 155 198 106 301 226 159 214 151 250 140 223 243 244 249 206 219 230 244 266 296 309 300 310 321 322 311 303 297 263 256
161 162 161 160 160 155 151 151 161 124 140 131 115 91 172 179 177 207 193 204 211 177 168 158 142 151 159 224 182 166 218 232 278 234 241 243 317 256 226 239 249 258 276 293 314 310 296 306 311 305 285 275 260 232
160 161 159 161 159 153 148 145 145 155 132 118 133 156 225 185 222 186 214 148 89 153 160 155 146 158 122 179 165 224 229 252 246 230 231 263 271 298 264 262 266 267 284 287 301 306 298 294 308 306 284 261 249 230
157 155 154 159 155 150 146 146 160 155 165 116 146 213 214 250 114 158 99 146 130 151 144 132 114 183 140 174 206 227 216 231 227 232 251 318 312 309 312 303 305 304 293 291 306 299 303 288 294 296 282 250 228 225
144 136 158 156 149 145 145 141 144 103 121 140 208 227 193 209 202 187 189 171 148 156 149 182 150 162 215 221 200 209 228 224 235 242 263 295 308 306 306 305 306 308 295 294 295 293 298 283 287 287 276 226 222 209
141 135 155 146 142 145 144 114 118 141 184 199 203 235 207 218 198 172 171 170 160 166 191 143 184 213 175 220 202 223 223 261 285 290 293 299 304 305 306 305 303 296 294 291 290 288 292 286 284 277 261 237 220 217
97 141 145 141 137 133 102 107 132 176 205 182 178 192 211 230 189 154 175 148 170 201 201 221 239 212 220 231 239 248 262 268 273 278 280 290 297 301 300 297 296 294 293 292 292 290 285 278 269 260 250 238 220 214
131 145 149 145 128 103 122 155 189 199 196 161 210 171 188 208 229 241 208 194 219 228 243 75 241 237 237 245 256 261 267 272 278 281 285 293 297 298 294 291 286 280 285 285 284 282 275 252 248 256 252 224 216 198
128 142 147 138 113 108 145 197 147 206 177 178 202 201 205 212 227 233 237 234 216 224 209 219 240 250 255 253 256 270 275 280 287 291 289 291 293 296 294 291 286 289 282 279 284 278 275 266 251 245 233 215 205 205
108 139 133 122 88 94 163 162 192 203 135 193 185 201 198 221 228 227 228 219 226 207 238 234 242 248 250 255 268 271 277 281 279 280 286 289 289 288 290 288 285 282 281 284 278 273 269 262 260 249 224 212 212 216
103 106 94 82 86 152 246 199 161 138 162 160 168 198 200 216 223 219 219 208 219 229 230 243 249 254 260 260 262 267 275 279 279 280 278 279 279 280 279 281 285 285 286 280 272 272 270 271 268 254 224 225 209 206
97 99 79 101 185 199 204 167 163 173 159 178 176 200 211 219 221 176 220 216 237 236 244 247 253 257 262 271 275 274 275 277 276 274 275 274 281 283 281 280 283 285 286 286 283 284 282 272 267 249 222 219 205 203
75 136 186 185 193 180 149 181 167 173 171 178 203 213 226 222 145 217 246 249 253 252 248 254 257 259 264 268 264 267 272 274 278 277 278 283 279 279 281 283 280 285 301 298 295 281 277 272 260 230 222 207 204 198
137 174 191 191 164 172 171 163 166 175 193 195 223 235 195 163 209 235 242 259 258 255 250 252 258 263 266 268 272 278 288 295 275 278 286 289 286 285 286 281 275 285 293 281 281 279 267 262 254 226 202 203 194 193
198 191 194 185 166 179 175 169 190 194 190 207 214 233 122 197 230 243 248 257 268 283 292 290 276 268 265 260 277 276 260 238 276 271 281 290 297 297 289 291 295 297 236 271 278 279 280 262 249 241 220 206 200 192
216 192 166 224 170 180 187 197 183 180 198 206 210 170 184 221 235 239 243 191 234 81 304 229 253 251 259 200 215 243 275 267 258 281 302 294 291 287 283 298 305 319 327 296 273 269 273 267 246 226 214 199 205 199
218 177 160 170 187 195 177 178 180 194 205 197 180 184 199 211 239 199 157 125 142 132 193 201 210 241 238 233 237 273 279 288 280 268 257 241 239 260 320 320 329 333 321 338 322 311 305 284 240 210 195 199 193 164
187 185 171 180 188 192 216 201 206 207 192 183 200 206 221 224 28 155 168 172 187 188 192 209 191 203 220 215 220 228 246 297 327 342 339 320 313 34 360 342 334 326 330 330 343 346 325 319 290 226 180 164 158 154
180 174 195 181 194 212 200 201 225 198 186 215 240 265 228 207 150 113 177 180 215 218 204 210 180 210 223 237 217 200 188 355 8 350 336 337 344 339 342 352 340 339 341 341 22 27 35 55 78 77 107 127 139 149
159 191 189 183 222 215 221 170 151 167 192 212 212 254 258 356 202 200 216 217 221 201 189 195 197 208 229 229 227 234 182 114 72 27 350 319 321 334 336 337 343 339 339 336 349 34 52 37 53 118 137 136 150 152
191 199 191 193 189 156 164 194 191 193 176 205 216 205 189 226 254 191 170 184 198 207 210 213 216 213 171 146 127 94 80 111 97 44 7 353 347 342 324 322 324 324 336 327 331 343 325 330 324 183 181 185 181 169
206 195 220 170 157 182 171 161 183 182 202 214 228 208 216 222 246 116 146 225 241 216 203 187 132 119 136 142 154 142 138 133 93 1 328 327 313 307 299 308 317 323 320 331 320 346 336 335 304 242 194 175 160 168